Home > Weather > Egersund > Past weeks

Flag for Norway Past Weather in Egersund, Norway — Yesterday and Last 2 Weeks

Now
67 °F

Mild.


Feels Like: 67 °F
Forecast: 57 / 63 °F
Wind: 6 mph from South

Location: Ualand-Bjuland

Current Time: Jul 25, 2016 at 12:06:17 PM

Latest Report: Jul 25, 2016 at 11:00 AM


Visibility: N/A

Pressure: 29.95 "Hg

Humidity: 81%

Dew Point: 61 °F

Location of EgersundLocation

Past Weather in Egersund — Graph

°F

Egersund Temperature Yesterday

Maximum temperature yesterday: 76 °F (at 2:00 PM)
Minimum temperature yesterday: 52 °F (at 5:00 AM)
Average temperature yesterday: 64 °F

High & Low Weather Summary for the Past Weeks

 TemperatureHumidityPressure
High77 °F (Jul 20, 2:00 PM)99% (Jul 18, 6:00 AM)30.14 "Hg (Jul 18, 6:00 AM)
Low48 °F (Jul 18, 2:00 AM)53% (Jul 23, 2:00 PM)29.44 "Hg (Jul 11, 8:00 PM)
Average61 °F83%29.91 "Hg
* Reported Jul 10 11:00 AM — Jul 25 11:00 AM, Egersund, Weather by CustomWeather, © 2016

Note: Actual official high and low records may vary slightly from our data, if they occured in-between our weather recording intervals... More about our weather records

Advertising

Egersund Weather History for the Previous 24 Hours

Scroll right to see more
 ConditionsComfort  
Time TempWeatherWind HumidityBarometerVisibility
11:00 AM
Mon, Jul 25
67 °FMild.6 mph81%29.95 "HgN/A
10:00 AM65 °FMild.1 mph87%29.95 "HgN/A
9:00 AM63 °FMild.1 mph92%29.95 "HgN/A
8:00 AM62 °FOvercast.No wind95%29.95 "Hg25 mi
7:00 AM61 °FCool.1 mph97%29.97 "HgN/A
6:00 AM59 °FCool.1 mph97%29.98 "HgN/A
5:00 AM59 °FCool.1 mph95%30.00 "HgN/A
4:00 AM59 °FCool.1 mph95%30.00 "HgN/A
3:00 AM58 °FCool.1 mph97%30.03 "HgN/A
2:00 AM57 °FCool.1 mph96%30.03 "HgN/A
1:00 AM59 °FCool.1 mph94%30.05 "HgN/A
12:00 AM58 °FCool.1 mph93%30.05 "HgN/A
11:00 PM
Sun, Jul 24
58 °FCool.1 mph92%30.05 "HgN/A
10:00 PM61 °FCool.1 mph87%30.05 "HgN/A
9:00 PM65 °FMild.1 mph79%30.05 "HgN/A
8:00 PM69 °FOvercast.2 mph64%30.05 "Hg47 mi
7:00 PM70 °FMild.2 mph63%30.05 "HgN/A
6:00 PM75 °FMild.2 mph55%30.06 "HgN/A
5:00 PM75 °FMild.3 mph54%30.06 "HgN/A
4:00 PM75 °FMild.3 mph59%30.07 "HgN/A
3:00 PM73 °FMild.3 mph59%30.08 "HgN/A
2:00 PM76 °FOvercast.1 mph53%30.08 "Hg47 mi
1:00 PM76 °FMild.2 mph56%30.09 "HgN/A
12:00 PM73 °FMild.2 mph61%30.09 "HgN/A
Weather by CustomWeather, © 2016

See weather overviewHow to use our weather pages